User: anonymous   Login
Location: Theydon Bois
(51.6750°N, 0.1050°E)
Time: 01:05:24
(UTC+01:00)
Language:

Cosmos 1812 Rocket - Orbit

View from above orbital plane
View from above orbital plane
View from above satellite
View from above satellite

Ground track
Ground track

The orbit data is extracted from the following two-line orbital elements,

1 17296U 87003B   18197.54852703 +.00000043 +00000-0 +23278-5 0  9997
2 17296 082.5289 016.0481 0019146 005.6581 354.4846 14.83234598680484
Epoch (UTC): 16 July 2018 13:09:52
Eccentricity: 0.0019146
inclination: 82.5289°
perigee height: 606 km
apogee height: 632 km
right ascension of ascending node: 16.0481°
argument of perigee: 5.6581°
revolutions per day: 14.83234598
mean anomaly at epoch: 354.4846°
orbit number at epoch: 68048

The dashed part of the orbit path shows where the satellite is in the earth's shadow,  

DLR